When you browse on this site, cookies collect data to enhance your experience and personalize the content and advertising you see.
Visit our Privacy Policy to learn more. By continuing to use the site, you agree to this use of cookies and data.
  • In Latvia
  • List of Countries
  • For 7 days
  • Water Temperature
  • Satellite Maps
  • Weather Map
  • Weather Widgets
  • user-avatar
    Login

    Hourly Weather Yelsk

    Today, 21 April, Sunday

    Time Temperature Precipitation Wind Pressure Humidity
    00:00 +8°C° 0 mm 2 mps 751 mmHg 73%
    01:00 +8°C° 0 mm 2 mps 751 mmHg 77%
    02:00 +7°C° 0 mm 2 mps 751 mmHg 79%
    03:00 +7°C° 0.1 mm 2 mps 751 mmHg 82%
    04:00 +7°C° 0.1 mm 2 mps 750 mmHg 85%
    05:00 +6°C° 0.1 mm 2 mps 750 mmHg 88%
    06:00 +8°C° 0 mm 3 mps 750 mmHg 81%
    07:00 +10°C° 0 mm 3 mps 750 mmHg 74%
    08:00 +11°C° 0 mm 4 mps 750 mmHg 66%
    09:00 +12°C° 0.1 mm 4 mps 750 mmHg 59%
    10:00 +13°C° 0.1 mm 5 mps 750 mmHg 52%
    11:00 +14°C° 0.1 mm 5 mps 750 mmHg 45%
    12:00 +15°C° 0.1 mm 6 mps 750 mmHg 44%
    13:00 +15°C° 0.1 mm 6 mps 750 mmHg 43%
    14:00 +15°C° 0.1 mm 6 mps 750 mmHg 42%
    15:00 +15°C° 0.1 mm 6 mps 750 mmHg 44%
    16:00 +14°C° 0.1 mm 6 mps 750 mmHg 47%
    17:00 +14°C° 0.1 mm 5 mps 750 mmHg 49%
    18:00 +13°C° 0 mm 5 mps 751 mmHg 53%
    19:00 +11°C° 0 mm 4 mps 751 mmHg 57%
    20:00 +10°C° 0 mm 3 mps 751 mmHg 61%
    21:00 +10°C° 0 mm 3 mps 752 mmHg 61%
    22:00 +9°C° 0 mm 3 mps 752 mmHg 61%
    23:00 +8°C° 0 mm 3 mps 753 mmHg 61%

    Tomorrow, 22 April, Monday

    Time Temperature Precipitation Wind Pressure Humidity
    00:00 +8°C° 0 mm 3 mps 753 mmHg 60%
    01:00 +7°C° 0 mm 3 mps 753 mmHg 59%
    02:00 +7°C° 0 mm 3 mps 753 mmHg 58%
    03:00 +6°C° 0 mm 2 mps 754 mmHg 60%
    04:00 +5°C° 0 mm 2 mps 754 mmHg 61%
    05:00 +5°C° 0 mm 2 mps 754 mmHg 63%
    06:00 +7°C° 0 mm 3 mps 754 mmHg 57%
    07:00 +9°C° 0 mm 3 mps 755 mmHg 51%
    08:00 +11°C° 0 mm 3 mps 755 mmHg 45%
    09:00 +12°C° 0 mm 4 mps 755 mmHg 40%
    10:00 +13°C° 0 mm 4 mps 756 mmHg 35%
    11:00 +15°C° 0 mm 4 mps 756 mmHg 30%
    12:00 +15°C° 0 mm 4 mps 756 mmHg 30%
    13:00 +15°C° 0 mm 4 mps 756 mmHg 30%
    14:00 +15°C° 0 mm 4 mps 756 mmHg 29%
    15:00 +16°C° 0 mm 3 mps 756 mmHg 31%
    16:00 +16°C° 0 mm 3 mps 756 mmHg 33%
    17:00 +14°C° 0 mm 3 mps 756 mmHg 35%
    18:00 +13°C° 0 mm 3 mps 756 mmHg 41%
    19:00 +12°C° 0 mm 2 mps 756 mmHg 46%
    20:00 +9°C° 0 mm 2 mps 756 mmHg 51%
    21:00 +9°C° 0 mm 2 mps 757 mmHg 51%
    22:00 +9°C° 0 mm 2 mps 757 mmHg 50%
    23:00 +9°C° 0 mm 2 mps 757 mmHg 50%

    Day after tomorrow, 23 April, Tuesday

    Time Temperature Precipitation Wind Pressure Humidity
    00:00 +9°C° 0 mm 2 mps 757 mmHg 51%
    01:00 +9°C° 0 mm 2 mps 757 mmHg 51%
    02:00 +9°C° 0 mm 2 mps 758 mmHg 52%
    03:00 +8°C° 0 mm 2 mps 758 mmHg 53%
    04:00 +8°C° 0 mm 2 mps 758 mmHg 54%
    05:00 +7°C° 0 mm 2 mps 758 mmHg 55%
    06:00 +9°C° 0 mm 2 mps 758 mmHg 51%
    07:00 +10°C° 0 mm 3 mps 758 mmHg 48%
    08:00 +12°C° 0 mm 3 mps 758 mmHg 44%
    09:00 +13°C° 0 mm 3 mps 758 mmHg 40%
    10:00 +15°C° 0 mm 4 mps 758 mmHg 36%
    11:00 +17°C° 0 mm 4 mps 758 mmHg 32%
    12:00 +17°C° 0 mm 4 mps 758 mmHg 33%
    13:00 +17°C° 0 mm 4 mps 757 mmHg 34%
    14:00 +17°C° 0 mm 4 mps 757 mmHg 35%
    15:00 +17°C° 0 mm 4 mps 757 mmHg 36%
    16:00 +17°C° 0 mm 4 mps 757 mmHg 37%
    17:00 +17°C° 0 mm 4 mps 757 mmHg 38%
    18:00 +15°C° 0 mm 4 mps 757 mmHg 41%
    19:00 +14°C° 0 mm 3 mps 757 mmHg 45%
    20:00 +13°C° 0 mm 2 mps 757 mmHg 49%
    21:00 +13°C° 0 mm 2 mps 757 mmHg 52%
    22:00 +12°C° 0 mm 2 mps 757 mmHg 54%
    23:00 +10°C° 0 mm 3 mps 757 mmHg 56%

    24 April, Wednesday

    Time Temperature Precipitation Wind Pressure Humidity
    00:00 +9°C° 0 mm 2 mps 757 mmHg 59%
    01:00 +9°C° 0 mm 2 mps 757 mmHg 61%
    02:00 +8°C° 0 mm 2 mps 757 mmHg 64%
    03:00 +8°C° 0 mm 3 mps 757 mmHg 65%
    04:00 +7°C° 0 mm 3 mps 758 mmHg 67%
    05:00 +7°C° 0 mm 3 mps 758 mmHg 68%
    06:00 +9°C° 0 mm 3 mps 758 mmHg 62%
    07:00 +11°C° 0 mm 4 mps 758 mmHg 56%
    08:00 +13°C° 0 mm 4 mps 758 mmHg 51%
    09:00 +14°C° 0 mm 4 mps 758 mmHg 46%
    10:00 +16°C° 0 mm 5 mps 758 mmHg 41%
    11:00 +17°C° 0 mm 5 mps 758 mmHg 37%
    12:00 +19°C° 0 mm 5 mps 757 mmHg 36%
    13:00 +19°C° 0 mm 5 mps 757 mmHg 36%
    14:00 +20°C° 0 mm 5 mps 757 mmHg 35%
    15:00 +19°C° 0 mm 5 mps 757 mmHg 37%
    16:00 +19°C° 0 mm 5 mps 756 mmHg 38%
    17:00 +19°C° 0 mm 4 mps 756 mmHg 39%
    18:00 +17°C° 0 mm 4 mps 756 mmHg 46%
    19:00 +14°C° 0 mm 3 mps 756 mmHg 53%
    20:00 +13°C° 0 mm 2 mps 756 mmHg 60%
    21:00 +11°C° 0 mm 3 mps 757 mmHg 62%
    22:00 +11°C° 0 mm 3 mps 757 mmHg 64%
    23:00 +10°C° 0 mm 3 mps 757 mmHg 66%

    25 April, Thursday

    Time Temperature Precipitation Wind Pressure Humidity
    00:00 +10°C° 0 mm 3 mps 757 mmHg 66%
    01:00 +9°C° 0 mm 3 mps 757 mmHg 67%
    02:00 +9°C° 0 mm 3 mps 757 mmHg 67%
    03:00 +8°C° 0 mm 3 mps 757 mmHg 69%
    04:00 +8°C° 0 mm 3 mps 757 mmHg 70%
    05:00 +8°C° 0 mm 2 mps 757 mmHg 71%
    06:00 +10°C° 0 mm 3 mps 757 mmHg 64%
    07:00 +12°C° 0 mm 4 mps 757 mmHg 58%
    08:00 +14°C° 0 mm 4 mps 757 mmHg 51%
    09:00 +15°C° 0 mm 5 mps 757 mmHg 46%
    10:00 +17°C° 0 mm 5 mps 757 mmHg 42%
    11:00 +19°C° 0 mm 6 mps 757 mmHg 37%
    12:00 +20°C° 0 mm 6 mps 756 mmHg 37%
    13:00 +21°C° 0 mm 6 mps 756 mmHg 36%
    14:00 +21°C° 0 mm 5 mps 755 mmHg 35%
    15:00 +21°C° 0 mm 5 mps 755 mmHg 36%
    16:00 +21°C° 0 mm 5 mps 754 mmHg 38%
    17:00 +20°C° 0 mm 5 mps 754 mmHg 39%
    18:00 +18°C° 0 mm 4 mps 754 mmHg 46%
    19:00 +16°C° 0 mm 3 mps 754 mmHg 53%
    20:00 +14°C° 0 mm 3 mps 754 mmHg 60%
    21:00 +13°C° 0 mm 3 mps 754 mmHg 61%
    22:00 +12°C° 0 mm 3 mps 753 mmHg 62%
    23:00 +12°C° 0 mm 3 mps 753 mmHg 64%

    26 April, Friday

    Time Temperature Precipitation Wind Pressure Humidity
    00:00 +11°C° 0 mm 3 mps 753 mmHg 64%
    01:00 +11°C° 0 mm 3 mps 753 mmHg 64%
    02:00 +10°C° 0 mm 3 mps 753 mmHg 64%
    03:00 +10°C° 0 mm 3 mps 752 mmHg 62%
    04:00 +10°C° 0 mm 3 mps 752 mmHg 61%
    05:00 +8°C° 0 mm 4 mps 752 mmHg 60%
    06:00 +11°C° 0 mm 4 mps 752 mmHg 54%
    07:00 +13°C° 0 mm 5 mps 752 mmHg 48%
    08:00 +14°C° 0 mm 5 mps 752 mmHg 42%
    09:00 +16°C° 0 mm 6 mps 751 mmHg 38%
    10:00 +19°C° 0 mm 6 mps 751 mmHg 34%
    11:00 +20°C° 0 mm 6 mps 751 mmHg 30%
    12:00 +21°C° 0 mm 6 mps 750 mmHg 31%
    13:00 +22°C° 0 mm 6 mps 750 mmHg 32%
    14:00 +22°C° 0 mm 6 mps 749 mmHg 33%
    15:00 +22°C° 0 mm 6 mps 749 mmHg 35%
    16:00 +22°C° 0 mm 5 mps 749 mmHg 38%
    17:00 +21°C° 0 mm 5 mps 748 mmHg 41%
    18:00 +20°C° 0 mm 4 mps 748 mmHg 48%
    19:00 +18°C° 0 mm 4 mps 748 mmHg 55%
    20:00 +16°C° 0 mm 3 mps 748 mmHg 61%
    21:00 +14°C° 0 mm 3 mps 748 mmHg 64%
    22:00 +14°C° 0 mm 3 mps 747 mmHg 66%
    23:00 +13°C° 0 mm 3 mps 747 mmHg 69%
    Show more